Regional Weather Roundup
Issued by NWS Mobile, AL

Home | Current Version | Previous Version | Text Only | Print | Product List | Glossary Off
Versions: 1 2 3 4 5 6 7 8 9 10 11 12 13 14 15 16 17 18 19 20 21 22 23 24 25 26 27 28 29 30 31 32 33 34 35 36 37 38 39 40 41 42 43 44 45 46 47 48 49 50

124
ASUS44 KMOB 290812
RWRMOB
REGIONAL WEATHER ROUNDUP
NATIONAL WEATHER SERVICE MOBILE AL
300 AM CDT FRI APR 29 2016

NOTE: "FAIR" INDICATES FEW OR NO CLOUDS BELOW 12,000 FEET WITH NO
      SIGNIFICANT WEATHER AND/OR OBSTRUCTIONS TO VISIBILITY.

  * THESE STATIONS ARE PART OF THE UNIVERSITY OF SOUTH ALABAMA
    MESONET AND ARE NOT UNDER NWS OR FAA QUALITY CONTROL.

ALZ061>064-290900-
COASTAL ALABAMA

CITY           SKY/WX    TMP DP  RH WIND       PRES   REMARKS
MOBILE REG APT CLEAR     66  66 100 CALM      29.97R
BROOKLEY FIELD CLEAR     67  66  97 CALM      29.98R
USA CAMPUS*    NOT AVBL
DOG RIVER*     NOT AVBL


CITY           SKY/WX    TMP DP  RH WIND       PRES   REMARKS
MOUNT VERNON*  NOT AVBL
SARALAND*      NOT AVBL
BAY MINETTE*   NOT AVBL
LOXLEY*        NOT AVBL
ROBERTSDALE*   NOT AVBL
FAIRHOPE*      NOT AVBL
ELBERTA*       NOT AVBL
FOLEY*         NOT AVBL
GRAND BAY*     NOT AVBL
DAUPHIN ISLND* NOT AVBL
BON SCOUR NWR* NOT AVBL
GULF SHORES    CLEAR     63  63 100 NW5       29.96R FOG

$$

ALZ051>060-290900-
INTERIOR SOUTHWEST AND SOUTH CENTRAL ALABAMA

CITY           SKY/WX    TMP DP  RH WIND       PRES   REMARKS
GREENVILLE     FOG       64  62  93 CALM      29.97S VSB 1/2
EVERGREEN      PTCLDY    63  62  97 CALM      29.99R FOG
CASTLEBERRY*   NOT AVBL
ATMORE*        NOT AVBL
DIXIE*         NOT AVBL
ANDALUSIA/OPP  CLEAR     68  64  87 CALM      29.98S FOG
ANDALUSIA*     NOT AVBL
FLORALA APT    PTCLDY    64  62  93 CALM      30.00R FOG
FLORALA*       NOT AVBL

$$

FLZ001>006-290900-
WESTERN FLORIDA PANHANDLE

CITY           SKY/WX    TMP DP  RH WIND       PRES   REMARKS
PENSACOLA      CLEAR     67  64  90 CALM      29.96R
NAS PENSACOLA  NOT AVBL
MILTON         PTCLDY    64  64 100 CALM      29.97S
WHTNG S FIELD  PTCLDY    67  65  93 CALM      29.97R


CITY           SKY/WX    TMP DP  RH WIND       PRES   REMARKS
WALNUT HILL*   NOT AVBL
JAY*           NOT AVBL
DUKE FIELD     CLEAR     64  62  96 N3        29.96S
CRESTVIEW      PTCLDY    62  61  96 CALM      29.99S FOG
VALPARAISO     PTCLDY    65  63  95 CALM      29.96S
DESTIN         CLEAR     70  68  93 CALM      29.96S FOG

$$

MSZ076-079-290900-
INTERIOR SOUTHEAST MISSISSIPPI

CITY           SKY/WX    TMP DP  RH WIND       PRES   REMARKS
LEAKESVILLE*   NOT AVBL
AGRICOLA*      NOT AVBL

$$

MARINE OBSERVATIONS

STATION/POSITION TIME  TEMP    WIND        PRES    WAVE
                       AIR SEA DIR/SP/G            HT/PER
                 (UTC) (F)     (DEG/KT/KT) (MB)    (FT/S)
PASCAGOULA       0700   74     120/  6/  8 1013.8F
PETIT BOIS ISLND 0706   75     130/  7/  9 1014.5F
GRAND BAY        0600   74     130/ 10     1016.0S
KATRINA CUT      0700   74     130/  7       N/A
CEDAR POINT      0700   73     130/  6     1013.9
E DAUPHIN ISLAND 0700   74     110/  5/  5 1013.7F
MIDDLE BAY LIGHT 0700   74     120/  7     1013.5F
USCG MOBILE BAY  0700   72 75  120/  4/  6 1014.8F
STATE DOCKS      0700   71 72              1014.2F
MEAHER PARK      0700   70     110/  2     1013.9F
WEEKS BAY        0600   65                   N/A
FORT MORGAN      0700   74     130/  8/  9 1013.5F
12 S ORANGE BCH  0750   74 73  120/  4/  6 1013.4S   2/ 6
PENSACOLA BAY    0700   75     350/  1/  2 1014.5F
64 S DAUPHIN ISL 0700   74 73  100/  8/  8 1014.0S

$$

SELECTED LOCATIONS ACROSS THE REGION

CITY           SKY/WX    TMP DP  RH WIND       PRES   REMARKS
NEW ORLEANS    PTCLDY    73  70  90 SE7       29.90F
GULFPORT       CLEAR     69  67  93 CALM      29.94S
PASCAGOULA AP  CLEAR     62  62 100 CALM      29.95S FOG
PASCAGOULA*    NOT AVBL
HATTIESBURG    MOCLDY    70  67  90 E3        29.96S
LAUREL         CLEAR     70  64  83 CALM      29.96S
MERIDIAN       CLEAR     65  63  93 CALM      29.96S
JACKSON        CLOUDY    73  69  87 S7        29.93F
MONTGOMERY     CLEAR     68  66  93 CALM      29.98R FOG
TROY           CLEAR     65  64  97 CALM      29.99S FOG
KINSTON*       NOT AVBL
GENEVA*        NOT AVBL
ASHFORD*       NOT AVBL
DOTHAN         PTCLDY    68  65  90 W5        30.01S
PANAMA CITY    FOG       67  66  97 CALM      29.96S VSB 1/4

$$





USA.gov is the U.S. government's official web portal to all federal, state and local government web resources and services.